SR9WXG Weather Reports


time (UTC)temp
F
wind
direction
speed
knots
gust
knots
rain 1hr
in
rain 24hr
in
rain mn
in
humidity
%
barometer
mb
20260504170114 32 0 7.8 9.6 0.00 0.00 0.00 100 943.6
20260504160235 32 0 6.1 8.7 0.00 0.00 0.00 100 943.4
20260504151029 32 0 2.6 5.2 0.00 0.00 0.00 100 943.7
20260504150627 32 0 3.5 6.1 0.00 0.00 0.00 100 943.7
20260504150227 32 0 2.6 7.0 0.00 0.00 0.00 100 943.7
20260504141013 32 0 1.7 3.5 0.00 0.00 0.00 100 944.1
20260504140610 32 0 5.2 10.4 0.00 0.00 0.00 100 944.0
20260504140209 32 0 6.1 13.0 0.00 0.00 0.00 100 944.0
20260504130602 32 0 2.6 4.3 0.00 0.00 0.00 100 944.5
20260504130202 32 0 4.3 8.7 0.00 0.00 0.00 100 944.5
20260504120154 32 0 3.5 5.2 0.00 0.00 0.00 100 945.1
20260504110536 32 0 3.5 10.4 0.00 0.00 0.00 100 945.8
20260504110136 32 0 7.8 13.0 0.00 0.00 0.00 100 945.7
20260504100528 32 0 8.7 12.2 0.00 0.00 0.00 100 946.5
20260504100128 32 0 5.2 8.7 0.00 0.00 0.00 100 946.4
20260504090110 32 0 1.7 3.5 0.00 0.00 0.00 100 947.0
20260504081704 32 0 2.6 6.1 0.00 0.00 0.00 100 947.0
20260504081304 32 0 3.5 7.0 0.00 0.00 0.00 100 947.0
20260504080905 32 0 2.6 4.3 0.00 0.00 0.00 100 947.0
20260504080503 32 0 4.3 7.8 0.00 0.00 0.00 100 947.0
20260504050429 32 0 6.1 8.7 0.00 0.00 0.00 100 946.5
20260504045629 32 0 5.2 7.0 0.00 0.00 0.00 100 946.6
20260504045129 32 0 2.6 4.3 0.00 0.00 0.00 100 946.7
20260504044506 32 0 2.6 4.3 0.00 0.00 0.00 100 946.8